Location: Arcones
(41.1182°N, 3.7238°W)
Time: 04:49:40
(UTC+00:00)

Hubble Space Telescope - Pass Details

Date: 11 December 2025
Orbit: 479 x 482 km, 28.5° (Epoch: 13 January)

Event Time Altitude Azimuth Distance (km) Brightness Sun altitude
Rises 18:13:50 0° 223° (SW) 2,523 5.3 -15.9°
Reaches altitude 10° 18:17:52 10° 181° (S) 1,644 3.5 -16.6°
Maximum altitude 18:18:31 10° 171° (S) 1,623 3.3 -16.8°
Drops below altitude 10° 18:19:10 10° 161° (SSE) 1,644 3.2 -16.9°
Enters shadow 18:20:23 - 144° (SE) 1,795 3.2 -17.1°
